Temp_Advection
nan nan nan nan nan nan nan nan nan nan nan nan nan nan nan nan nan nan nan nan nan nan nan nan nan nan nan nan nan nan nan nan nan nan nan nan nan nan nan nan nan nan nan nan nan nan nan
nan 0 0 0 0 0 0 0 0 -0 -0 -0 -0 -0 -0 -0 -0 -0 -0 -0 -0 -0 -0 -0 -0 -0 -1 -0 0 0 -0 -0 -0 0 -0 0 0 0 -0 -0 0 0 -0 -0 -0 -0 nan
nan 0 -0 -0 0 0 -0 0 0 -0 -0 -0 -0 -0 -0 -0 -0 -0 -0 -0 -0 -0 -0 -0 -0 -0 -0 -0 0 0 0 0 -0 -0 0 0 -0 -0 -0 0 0 -0 -0 -0 0 -0 nan
nan 0 -0 0 0 -0 0 0 0 0 -0 -0 -0 -0 -0 -0 -0 -0 -0 -0 -0 -0 -0 -0 -0 -0 -0 -0 0 0 0 0 0 -0 0 0 -0 -0 -0 -0 -0 -0 -0 -0 -0 0 nan
nan 0 0 0 0 -0 0 0 0 -0 -0 0 -0 -0 -0 -0 -0 -0 -0 -0 -0 -0 -0 -0 -0 -0 -0 0 0 0 -0 0 0 -0 -0 -0 -0 -0 -0 -1 -0 -0 -0 0 -0 -0 nan
nan 0 0 0 -0 0 0 -0 0 -0 -0 0 0 -0 -0 -0 -0 -0 -0 -0 -0 -0 -0 0 0 -0 -0 0 0 -0 -0 -0 -0 -0 -0 -0 -0 -0 -0 -0 0 -0 0 0 -0 0 nan
nan 0 0 -0 0 0 -0 0 0 -0 -0 0 0 -0 -0 -0 -0 -0 -0 -0 -0 -0 -0 -0 0 -0 -0 -0 -0 -0 -0 -0 -0 -0 -0 -0 -0 -0 -0 -0 -0 0 0 -0 -1 -0 nan
nan 0 -0 1 0 0 0 0 -0 -0 0 0 0 -0 -0 -0 -0 -0 -0 -0 -0 -0 -1 -1 0 -0 0 0 -0 -0 0 -0 -0 -0 0 -0 -0 -0 0 0 0 -0 -0 -0 -0 -0 nan
nan 0 0 0 -0 0 -0 -0 0 0 0 0 0 -0 -0 0 -0 -0 -0 -0 0 -0 -0 -0 0 -0 -0 -0 -0 0 0 -0 -0 0 0 -0 0 0 -0 -0 -0 -0 -0 -0 -0 -0 nan
nan 0 0 0 0 -0 -0 1 0 0 0 0 -0 0 0 0 -0 -0 0 0 0 -0 -1 -0 -0 0 0 -0 -0 0 -0 0 -0 -0 -0 -0 0 0 -0 -0 -0 -0 -0 0 -0 -0 nan
nan -0 0 0 0 0 1 1 0 -0 0 -0 -0 -0 0 -0 -0 -0 0 0 -0 0 -1 0 -0 -0 -0 -0 0 -0 -0 -0 -0 0 0 -0 0 -0 -0 -0 -0 -0 -0 -0 -0 -0 nan
nan 0 0 0 0 0 1 0 -0 -0 1 0 0 -0 0 0 -0 -0 0 -0 -0 -0 -0 0 -0 -0 -0 -0 -0 -0 -0 -0 -0 -0 -0 -0 0 -0 -0 0 -0 0 0 0 -0 0 nan
nan 0 1 0 0 0 0 0 0 1 0 -0 0 0 0 -0 0 0 -0 -0 0 -0 0 0 0 -0 -0 -0 -0 -0 -0 -0 -0 0 -0 -0 -0 0 0 -1 -0 0 0 0 0 0 nan
nan 0 1 1 0 0 0 0 0 0 0 0 0 1 0 0 0 -0 0 0 -1 -0 -0 -0 0 0 0 0 0 0 0 -0 0 -0 -0 0 0 -0 0 -0 -0 0 0 0 -0 -1 nan
nan 1 0 1 0 0 -0 0 0 0 0 0 1 0 -0 0 0 0 0 -0 -0 -0 0 0 0 0 0 0 -0 -0 -0 -0 -0 0 0 0 0 0 -0 -0 -0 0 0 -0 0 0 nan
nan 1 0 0 -0 0 0 0 0 0 0 0 0 0 -1 -0 0 0 -0 -1 -1 -0 -0 0 -0 -0 0 0 0 0 0 -0 -0 -0 -0 0 0 -0 0 -0 0 -0 -0 0 0 0 nan
nan 0 0 -0 0 0 0 0 0 0 0 0 0 -0 -0 0 0 -0 -0 -0 -1 0 0 -0 0 0 0 0 0 0 -0 -0 -0 -0 -0 -0 0 0 0 -0 -0 0 -0 -0 -0 -0 nan
nan -0 0 0 0 0 0 0 0 0 0 0 -0 -0 0 1 -0 -0 -0 -0 0 0 0 -0 0 0 0 0 0 0 -0 -0 -0 -0 -0 -0 -0 0 -0 -0 -0 -0 0 -0 0 0 nan
nan -0 0 0 0 0 0 0 0 0 0 0 -0 0 0 1 -0 -0 -0 0 0 1 0 0 0 0 0 0 -0 -0 -0 -0 -0 -0 -0 -0 0 0 0 0 0 0 0 0 0 -0 nan
nan 0 0 0 -0 -0 0 0 0 0 0 -0 0 -0 -0 -0 -1 -0 -0 -0 -0 -0 0 0 0 -0 0 0 -0 -0 0 -0 -0 -0 -0 -0 -0 0 -0 -0 0 0 0 0 1 -0 nan
nan 1 0 -0 0 1 0 0 -0 -0 0 0 0 -0 0 -0 -0 -1 -0 -0 -0 -0 -0 -0 -0 -0 0 -0 -0 -0 0 0 -0 0 0 -0 0 -0 -0 -0 0 -0 -0 -0 -0 0 nan
nan 0 0 0 0 0 0 0 0 0 0 0 0 0 0 0 -1 0 -0 -1 -0 -0 -0 -0 -0 -0 0 -0 0 0 0 0 0 -0 0 0 0 0 -0 -2 -0 -0 -1 -0 -0 -0 nan
nan 0 0 -0 -0 0 0 0 0 0 0 0 -0 -0 -0 0 0 -0 -1 0 -0 0 0 0 0 0 0 0 0 0 0 0 0 -0 0 0 0 -0 -0 -0 -0 -0 -1 -1 -0 -0 nan
nan 0 -0 -0 0 0 0 0 -0 0 0 -0 0 -0 0 -0 -0 -0 -0 -0 0 0 0 0 0 0 0 0 0 0 0 -0 -0 -0 0 0 0 -0 -0 0 -0 -0 -0 0 0 -0 nan
nan 0 0 0 1 0 0 0 0 0 0 0 0 -0 0 -0 0 0 0 -0 0 0 0 0 0 0 0 0 0 0 -0 -0 -0 0 1 1 0 0 -0 -1 -1 -1 0 0 0 0 nan
nan 0 0 0 1 0 0 0 0 0 0 0 0 0 0 0 0 0 -0 0 0 0 0 1 0 0 0 0 0 0 -0 -0 -0 0 -0 0 0 0 0 -0 -1 0 -0 0 -0 1 nan
nan 0 0 1 1 0 0 -0 -0 0 0 0 0 0 0 0 0 0 0 0 0 0 0 0 0 0 0 0 0 -0 -0 -0 -0 -0 -0 -0 -0 -0 -0 -0 -1 -0 -0 0 0 -0 nan
nan 0 0 1 1 0 -0 0 0 0 0 0 0 -0 1 0 0 0 0 0 0 0 0 -0 -0 -0 -0 -0 -0 -0 -0 -0 -0 0 -0 -1 -1 -0 -0 -0 -0 1 0 0 -0 -0 nan
nan nan nan nan nan nan nan nan nan nan nan nan nan nan nan nan nan nan nan nan nan nan nan nan nan nan nan nan nan nan nan nan nan nan nan nan nan nan nan nan nan nan nan nan nan nan nan
Wind_Speed
18 17 17 16 16 17 17 16 16 15 15 14 14 13 13 13 13 12 13 13 14 16 16 16 17 18 15 7 1 3 3 3 2 4 5 5 5 3 3 2 2 7 4 4 7 12 14
23 21 19 18 15 15 15 16 16 15 15 15 15 15 14 14 14 14 15 15 14 15 16 16 17 16 12 9 8 4 1 2 3 6 5 4 2 2 1 2 5 1 7 12 11 15 14
29 23 21 19 19 17 15 13 14 15 15 15 15 15 14 13 14 14 15 15 14 15 15 15 15 15 13 9 5 5 3 1 3 6 5 2 2 4 2 4 2 4 10 12 3 2 2
32 29 25 24 20 17 17 17 15 13 12 12 14 14 13 13 13 12 15 15 13 14 14 14 13 14 7 9 9 7 6 4 4 5 3 3 4 5 5 4 7 7 4 5 4 2 3
32 30 26 25 25 21 19 19 18 16 13 11 11 11 11 12 12 12 12 14 12 14 13 13 10 7 5 4 4 5 9 6 5 5 4 4 4 5 6 9 8 5 7 4 3 2 3
19 22 34 27 25 24 20 16 15 16 15 15 12 10 9 9 9 10 10 11 10 11 10 9 8 4 5 2 2 3 3 9 6 5 5 6 6 7 6 7 6 3 5 3 3 3 8
23 23 22 26 27 20 22 18 13 12 15 16 14 13 9 7 6 8 8 3 5 3 4 6 3 7 12 10 15 7 6 6 8 8 10 4 8 8 8 6 7 6 7 11 10 3 6
24 27 31 28 20 25 23 20 19 16 13 10 10 9 10 8 6 4 6 4 4 4 8 11 15 19 22 19 6 8 10 10 11 12 6 7 11 8 6 8 9 9 9 10 8 3 6
24 23 23 26 29 29 23 21 21 18 15 13 12 5 7 8 5 3 4 3 5 7 6 8 9 7 4 8 8 12 14 12 10 12 11 11 5 3 3 5 8 10 12 9 11 7 11
25 21 20 22 24 27 27 30 28 24 27 25 16 8 6 2 2 4 2 3 5 8 5 3 3 2 2 5 5 5 13 11 9 13 10 9 8 8 9 12 10 10 7 12 10 7 8
28 25 18 18 18 20 23 23 30 27 21 19 20 22 14 8 1 3 4 5 5 1 6 4 4 3 4 4 1 1 7 11 13 8 6 4 6 6 7 4 8 5 1 5 7 10 10
27 27 24 20 16 18 19 20 22 28 21 20 15 14 13 7 9 8 4 1 3 3 8 2 3 5 4 5 2 5 4 4 3 7 8 14 5 7 9 4 8 2 10 6 6 8 11
28 26 24 23 21 18 15 15 17 20 20 22 21 15 10 7 12 10 12 8 2 6 2 4 3 4 3 4 5 4 7 7 4 5 7 6 11 11 6 12 14 11 10 7 7 6 10
27 28 27 25 24 19 16 13 12 15 17 16 19 18 16 15 14 9 4 1 7 3 10 2 1 2 3 3 2 2 3 5 6 5 2 3 5 1 1 3 3 3 7 7 10 11 11
30 29 27 25 23 21 18 14 12 14 17 18 16 18 20 20 15 12 9 5 5 5 2 2 2 2 3 3 1 3 2 3 4 7 3 3 3 3 5 1 4 4 3 5 7 3 7
30 29 29 24 24 21 20 18 17 15 14 15 16 15 20 21 18 15 6 9 6 6 1 2 10 2 3 2 5 5 3 4 4 3 6 1 4 0 2 2 7 4 4 3 2 5 11
29 27 26 24 26 25 22 22 21 18 16 14 11 8 9 23 23 13 7 7 12 6 2 2 4 4 3 2 2 3 2 4 5 4 2 2 4 6 3 1 4 1 2 4 5 4 5
31 31 30 29 27 24 22 23 23 22 20 16 11 4 10 28 14 12 8 9 16 9 3 1 1 3 3 2 2 1 2 6 7 4 3 2 1 5 2 4 2 1 3 2 2 4 4
32 31 31 30 28 26 24 23 23 25 24 18 10 4 10 26 10 10 11 3 5 8 8 5 4 1 2 3 1 2 1 3 8 4 3 2 2 4 5 4 5 3 3 4 2 2 6
33 30 31 30 30 28 27 25 26 26 25 17 8 4 6 17 20 17 6 8 5 5 5 3 1 1 3 3 1 3 1 3 4 5 6 3 1 5 7 8 4 5 6 9 10 4 12
34 33 33 33 32 32 29 29 27 27 27 20 10 5 7 5 15 13 19 8 14 8 8 12 5 6 7 3 7 10 8 3 3 3 2 3 4 5 9 10 10 10 12 14 18 19 16
33 32 32 32 32 32 32 31 32 30 28 23 8 4 3 6 19 20 9 22 15 11 11 10 12 13 12 13 10 6 5 2 2 1 1 0 4 1 5 11 12 13 17 19 20 21 20
33 32 32 31 33 32 32 33 32 32 35 18 18 11 5 5 13 14 17 10 16 16 14 18 14 10 10 12 6 3 4 7 7 7 4 3 2 2 6 7 7 11 18 17 13 11 13
36 35 34 35 34 35 35 34 34 35 39 19 18 13 7 3 6 13 14 23 13 13 9 10 11 15 7 8 5 0 3 8 9 13 12 5 5 4 5 8 5 1 1 5 10 15 15
37 36 35 35 36 38 37 35 35 37 39 30 21 21 10 6 6 10 13 15 23 21 11 7 6 6 13 9 4 5 4 6 9 9 10 10 5 3 3 7 13 18 6 4 3 12 8
39 38 37 38 37 37 37 36 35 37 36 39 18 24 17 8 9 3 14 10 8 11 15 14 7 14 12 6 4 5 5 3 5 5 3 4 4 3 2 3 5 2 4 1 2 10 2
40 39 38 40 41 39 38 37 36 37 37 36 33 29 21 14 9 9 8 10 10 11 6 4 9 9 8 4 3 5 5 5 6 6 6 4 3 8 7 6 7 7 3 3 3 2 5
41 41 41 40 42 43 42 41 40 39 38 37 33 33 26 13 9 17 10 9 7 11 5 7 6 3 3 7 5 3 4 9 10 8 6 10 8 5 7 5 10 7 6 5 2 1 5
43 43 42 41 41 41 40 38 38 39 38 37 31 29 28 16 10 22 26 21 11 11 13 10 5 8 12 6 5 4 6 4 9 7 11 7 8 4 8 5 4 6 7 4 5 7 8
Wind_Direction
219 221 220 218 225 231 234 239 245 248 252 259 267 271 279 289 296 303 308 314 322 321 324 329 332 335 345 324 260 290 345 22 156 173 190 193 209 211 245 184 223 261 284 262 265 271 275
220 227 229 225 222 228 232 236 243 247 251 255 262 268 274 284 292 299 304 308 313 312 315 320 326 330 336 297 282 239 347 55 141 173 193 193 206 228 253 255 251 165 279 279 274 277 277
222 227 230 231 230 231 231 235 238 243 248 252 257 264 269 278 288 295 300 303 306 303 308 310 317 321 312 281 261 220 219 161 144 156 185 240 241 247 234 243 238 260 282 288 291 50 149
221 226 229 234 235 239 240 232 237 238 243 253 257 261 267 273 282 288 295 297 297 296 299 302 307 313 275 269 258 235 228 229 197 167 171 226 253 273 268 289 251 272 259 262 136 216 107
220 227 225 232 232 235 240 238 234 237 243 250 256 263 266 271 277 286 289 293 292 287 287 290 297 299 274 277 262 228 225 229 219 211 216 227 243 265 247 252 265 184 288 280 212 126 3
217 218 233 238 235 234 237 232 234 232 229 245 255 260 269 271 280 290 299 296 288 283 279 280 270 273 242 219 216 200 221 207 212 197 211 215 226 248 243 245 285 342 278 234 277 112 306
210 215 200 208 220 222 222 230 231 237 236 231 241 250 252 272 281 308 324 328 306 290 277 245 231 259 278 269 256 247 242 206 203 223 238 210 245 239 292 305 301 278 268 273 277 299 290
228 227 229 224 214 206 208 220 231 228 230 246 244 245 244 247 278 314 360 45 13 323 304 270 265 260 258 258 271 228 199 205 203 227 207 232 251 305 281 273 256 254 266 275 279 133 274
222 224 226 226 228 230 219 217 218 214 218 250 242 230 241 227 252 305 7 34 17 345 271 279 254 250 249 222 241 233 201 217 215 228 223 255 281 283 270 276 249 243 265 278 285 308 260
224 222 222 221 223 228 230 230 229 243 248 243 236 215 166 134 250 266 142 99 19 346 271 217 210 211 201 191 228 221 215 214 211 236 231 260 263 257 260 261 247 259 250 262 277 278 280
214 219 213 212 212 216 222 222 227 220 228 232 230 242 245 253 218 270 169 121 37 341 269 91 146 187 185 214 45 101 203 207 232 197 207 215 205 219 254 278 200 254 81 285 282 267 278
213 212 217 221 220 218 212 213 220 221 222 225 234 239 241 240 236 241 214 355 340 219 239 151 149 189 188 203 185 128 156 197 233 223 234 265 262 261 268 230 211 169 278 249 246 261 251
212 211 212 211 207 205 207 210 213 219 229 231 223 229 224 252 231 248 260 232 197 218 54 163 178 197 194 162 184 209 176 187 206 184 210 227 240 247 259 261 245 249 262 271 246 213 259
211 211 204 200 201 200 197 196 207 209 207 208 212 222 204 217 231 223 203 115 220 270 215 26 149 151 184 162 149 172 180 212 223 240 216 258 164 355 69 290 344 226 259 247 277 282 301
200 198 194 196 194 196 195 198 208 208 210 207 206 203 208 205 206 199 176 248 194 227 133 212 204 190 167 169 247 188 227 349 13 235 260 211 153 128 51 344 319 125 242 2 288 233 266
202 205 209 202 202 207 205 208 209 206 201 204 206 203 216 199 193 193 208 223 229 243 316 186 246 307 212 171 192 206 177 24 358 1 263 126 234 269 111 238 69 342 40 280 302 294 289
202 205 203 201 207 206 206 211 209 204 196 190 171 179 221 198 189 184 237 216 225 215 208 247 226 159 148 131 156 145 95 81 4 346 266 268 254 150 224 21 8 205 122 60 357 5 316
202 205 204 200 200 200 201 205 204 200 190 178 169 198 183 178 184 199 223 212 219 221 212 229 213 107 115 77 94 87 51 34 353 325 347 42 293 240 52 82 23 337 127 115 165 262 220
204 202 203 202 204 203 201 198 201 197 189 170 181 145 169 172 199 204 203 168 191 171 191 195 185 66 79 93 356 1 11 29 10 20 29 51 235 247 182 156 176 237 173 219 199 104 221
204 206 207 205 204 203 201 199 198 196 192 176 167 170 165 192 219 213 181 199 181 227 194 150 102 232 190 176 247 283 228 61 23 52 27 315 265 274 283 315 319 275 233 214 227 227 273
203 201 205 206 205 204 200 197 195 196 189 184 185 210 174 197 205 221 210 188 207 182 212 201 204 212 205 197 222 237 239 198 105 17 34 344 266 274 280 289 288 278 276 254 247 259 268
205 204 204 206 205 202 198 198 197 194 188 192 184 176 161 174 186 206 216 216 208 195 178 191 230 206 216 226 224 218 189 154 245 154 323 273 271 267 271 277 273 270 261 256 264 273 273
208 208 205 205 205 202 200 199 198 195 190 191 196 177 178 177 185 189 210 192 218 213 219 228 208 203 215 228 227 249 236 249 245 283 267 262 215 253 274 313 317 277 250 246 245 262 282
209 211 210 212 213 208 204 202 200 199 198 194 195 180 180 163 220 199 197 211 216 206 219 200 210 219 203 160 104 155 194 236 234 233 239 222 240 262 278 295 249 337 224 268 283 292 283
209 209 209 210 210 209 207 204 200 201 203 198 193 196 190 202 202 206 196 202 214 217 198 186 186 183 169 171 193 231 208 211 222 234 233 238 219 241 254 257 290 286 263 255 256 300 8
210 208 207 207 206 205 206 204 202 202 203 206 187 195 198 200 212 154 205 205 191 203 212 221 207 215 193 189 175 205 211 210 174 176 110 162 202 223 170 246 260 55 100 112 302 269 117
210 209 208 207 206 205 206 208 207 206 205 207 210 194 200 214 211 209 211 208 206 189 158 147 177 175 187 185 202 204 208 211 211 209 173 151 171 216 231 245 269 291 152 167 233 358 152
212 209 209 208 209 213 215 217 216 211 206 206 207 204 197 193 202 212 212 223 204 214 182 164 165 214 187 205 211 188 230 213 234 220 185 180 185 196 217 226 256 140 149 214 49 132 185
212 209 210 211 211 212 212 209 207 205 204 203 206 205 203 195 211 215 230 235 244 235 222 192 241 168 193 195 205 201 207 219 223 228 211 224 213 204 210 218 103 194 254 256 275 277 203
Height
1532 1534 1537 1539 1541 1544 1546 1548 1551 1552 1554 1555 1556 1556 1556 1557 1556 1555 1555 1555 1554 1552 1550 1549 1547 1545 1544 1545 1543 1541 1539 1538 1538 1539 1542 1541 1540 1539 1534 1535 1537 1537 1537 1537 1534 1534 1533
1527 1531 1534 1536 1538 1541 1543 1544 1548 1550 1551 1552 1554 1554 1554 1555 1555 1554 1553 1553 1552 1549 1548 1547 1545 1544 1544 1544 1541 1540 1540 1539 1537 1539 1541 1542 1539 1540 1537 1537 1535 1535 1536 1534 1532 1528 1528
1521 1527 1530 1532 1535 1538 1540 1542 1544 1547 1548 1549 1551 1552 1551 1551 1552 1551 1552 1550 1549 1547 1546 1545 1544 1542 1542 1541 1538 1539 1539 1539 1539 1538 1540 1541 1541 1539 1537 1533 1535 1534 1533 1527 1525 1526 1527
1516 1521 1525 1528 1531 1534 1537 1539 1542 1544 1545 1547 1548 1550 1549 1548 1549 1548 1549 1549 1547 1546 1544 1543 1541 1541 1540 1537 1537 1537 1539 1540 1539 1539 1539 1540 1540 1540 1538 1534 1532 1529 1529 1523 1524 1523 1526
1511 1517 1520 1523 1527 1530 1534 1536 1538 1541 1542 1545 1546 1547 1546 1546 1547 1545 1545 1546 1544 1544 1540 1541 1539 1541 1538 1535 1535 1535 1536 1540 1539 1539 1538 1538 1540 1538 1538 1530 1525 1525 1522 1526 1522 1521 1523
1507 1511 1515 1519 1524 1526 1530 1533 1535 1538 1539 1542 1543 1545 1544 1545 1543 1544 1542 1542 1543 1541 1539 1538 1537 1541 1536 1535 1534 1534 1535 1536 1539 1538 1539 1537 1537 1534 1530 1527 1525 1524 1527 1525 1522 1518 1519
1503 1508 1511 1515 1519 1523 1527 1530 1532 1535 1537 1538 1540 1543 1542 1543 1542 1543 1542 1541 1546 1541 1538 1536 1536 1532 1533 1533 1533 1533 1533 1534 1536 1536 1534 1535 1531 1528 1523 1524 1527 1529 1530 1530 1520 1516 1521
1498 1504 1507 1510 1514 1518 1522 1526 1529 1532 1534 1537 1537 1539 1540 1541 1542 1543 1542 1542 1544 1546 1538 1532 1531 1528 1527 1529 1530 1530 1531 1533 1532 1530 1532 1535 1529 1526 1528 1529 1531 1529 1528 1524 1515 1518 1521
1492 1497 1501 1505 1510 1514 1516 1522 1525 1529 1531 1535 1536 1536 1537 1540 1541 1543 1542 1543 1543 1543 1540 1529 1526 1525 1525 1526 1525 1525 1528 1527 1527 1527 1530 1528 1524 1530 1531 1527 1530 1526 1527 1523 1521 1515 1513
1487 1492 1496 1499 1503 1508 1509 1517 1522 1525 1527 1532 1533 1535 1537 1539 1543 1541 1543 1542 1543 1542 1537 1522 1523 1523 1523 1524 1523 1522 1523 1526 1525 1524 1526 1524 1522 1527 1527 1526 1524 1524 1518 1519 1517 1519 1517
1483 1487 1491 1495 1499 1500 1504 1511 1515 1519 1523 1527 1527 1533 1536 1538 1538 1543 1544 1541 1541 1543 1538 1521 1521 1522 1522 1524 1521 1521 1521 1524 1520 1523 1527 1520 1522 1522 1522 1519 1519 1517 1519 1519 1516 1515 1513
1478 1481 1485 1491 1494 1498 1504 1507 1509 1514 1517 1521 1525 1529 1534 1536 1537 1541 1543 1542 1542 1544 1538 1519 1519 1520 1521 1521 1520 1520 1522 1523 1522 1521 1522 1520 1522 1522 1517 1518 1517 1517 1516 1516 1516 1512 1522
1472 1477 1482 1486 1492 1497 1500 1502 1505 1508 1513 1518 1521 1526 1529 1532 1537 1537 1542 1545 1548 1544 1520 1518 1518 1518 1515 1517 1519 1518 1518 1519 1515 1522 1521 1517 1517 1516 1520 1518 1514 1517 1517 1522 1520 1520 1514
1467 1473 1478 1482 1489 1493 1496 1500 1503 1508 1511 1514 1519 1523 1526 1530 1535 1537 1541 1545 1542 1523 1518 1519 1519 1518 1515 1515 1518 1517 1518 1516 1517 1515 1516 1517 1521 1516 1518 1516 1514 1514 1512 1520 1527 1515 1504
1462 1468 1475 1480 1484 1489 1494 1498 1502 1505 1508 1511 1516 1519 1523 1527 1531 1533 1540 1544 1531 1521 1518 1519 1519 1517 1518 1517 1516 1516 1517 1517 1517 1516 1518 1519 1519 1520 1520 1518 1518 1517 1517 1516 1519 1525 1524
1457 1464 1471 1476 1480 1485 1490 1495 1501 1502 1505 1509 1514 1517 1520 1525 1529 1534 1538 1531 1526 1520 1520 1520 1524 1519 1519 1517 1517 1515 1516 1523 1522 1521 1520 1516 1523 1520 1519 1519 1519 1516 1520 1522 1519 1535 1523
1452 1459 1465 1471 1476 1481 1485 1492 1497 1501 1503 1510 1512 1518 1517 1522 1528 1533 1528 1526 1523 1523 1522 1523 1520 1521 1519 1520 1516 1517 1520 1526 1526 1521 1519 1516 1519 1520 1520 1519 1520 1521 1521 1528 1532 1541 1547
1447 1455 1460 1466 1472 1477 1482 1488 1493 1498 1503 1508 1511 1515 1513 1517 1526 1525 1524 1520 1520 1522 1524 1524 1524 1521 1519 1522 1521 1520 1521 1524 1529 1524 1518 1522 1522 1522 1519 1525 1527 1526 1528 1531 1540 1541 1547
1443 1448 1455 1461 1467 1472 1479 1483 1491 1495 1500 1504 1510 1510 1511 1515 1515 1515 1518 1519 1521 1524 1523 1523 1523 1522 1521 1522 1528 1524 1523 1531 1529 1525 1523 1523 1523 1525 1525 1529 1528 1526 1528 1530 1534 1545 1548
1435 1442 1450 1456 1462 1468 1474 1480 1487 1492 1497 1504 1507 1509 1511 1513 1512 1510 1514 1516 1522 1521 1523 1523 1524 1524 1523 1525 1525 1525 1525 1530 1530 1529 1529 1528 1524 1524 1527 1522 1525 1530 1529 1530 1530 1542 1525
1430 1435 1444 1452 1456 1463 1470 1476 1484 1488 1494 1502 1500 1501 1500 1503 1510 1510 1509 1512 1513 1519 1521 1522 1524 1523 1523 1527 1526 1526 1525 1528 1531 1531 1530 1529 1530 1528 1526 1526 1526 1528 1527 1523 1522 1518 1524
1426 1431 1438 1446 1452 1459 1465 1472 1477 1482 1492 1497 1497 1500 1500 1500 1502 1509 1509 1508 1509 1514 1515 1516 1518 1518 1520 1521 1523 1526 1526 1528 1529 1531 1530 1531 1530 1537 1544 1525 1523 1525 1519 1516 1515 1512 1508
1421 1426 1432 1440 1447 1454 1461 1467 1474 1478 1486 1487 1492 1495 1498 1500 1497 1501 1503 1505 1506 1509 1512 1514 1517 1518 1521 1521 1524 1527 1528 1531 1531 1532 1530 1532 1532 1534 1527 1519 1521 1524 1508 1507 1505 1503 1503
1415 1421 1426 1435 1442 1448 1456 1462 1468 1474 1478 1484 1489 1495 1496 1499 1496 1494 1499 1504 1506 1508 1510 1512 1514 1517 1521 1522 1525 1529 1530 1530 1530 1529 1531 1530 1531 1530 1527 1522 1530 1501 1501 1500 1502 1502 1499
1408 1415 1421 1428 1434 1441 1450 1457 1462 1469 1476 1481 1486 1492 1494 1494 1496 1497 1498 1499 1503 1507 1511 1511 1515 1517 1520 1522 1526 1527 1525 1527 1524 1526 1527 1530 1531 1531 1527 1515 1505 1499 1494 1501 1502 1501 1505
1400 1408 1415 1421 1429 1436 1444 1451 1459 1465 1472 1478 1482 1489 1493 1494 1495 1496 1497 1497 1497 1501 1506 1509 1515 1518 1519 1520 1523 1525 1516 1510 1518 1524 1530 1530 1532 1533 1532 1530 1517 1494 1503 1505 1504 1499 1506
1392 1400 1408 1415 1422 1430 1438 1446 1453 1460 1467 1474 1478 1484 1491 1494 1495 1496 1496 1496 1497 1498 1502 1508 1512 1515 1516 1519 1521 1519 1514 1509 1510 1510 1521 1525 1530 1528 1529 1525 1508 1495 1503 1506 1511 1501 1505
1385 1392 1401 1408 1416 1425 1433 1439 1447 1454 1462 1468 1475 1481 1486 1490 1493 1495 1496 1497 1497 1497 1499 1506 1511 1512 1515 1516 1515 1517 1511 1504 1504 1500 1507 1508 1514 1519 1519 1520 1514 1499 1503 1505 1502 1503 1505
1377 1384 1393 1401 1410 1418 1425 1432 1440 1448 1456 1465 1471 1476 1483 1487 1490 1491 1492 1493 1495 1497 1499 1500 1499 1501 1503 1505 1505 1505 1503 1500 1498 1500 1499 1502 1497 1500 1501 1495 1496 1498 1497 1499 1500 1501 1503